| time (UTC) | temp F | wind direction | speed knots | gust knots | rain 1hr in | rain 24hr in | rain mn in | humidity % | barometer mb |
| 20260508011031 | 66 | 167 | 0.0 | 2.6 | 0.00 | 0.01 | 0.01 | 38 | 1011.7 |
| 20260508010030 | 65 | 197 | 2.6 | 11.3 | 0.00 | 0.01 | 0.01 | 38 | 1011.5 |
| 20260508005031 | 66 | 305 | 0.9 | 6.1 | 0.00 | 0.01 | 0.01 | 35 | 1011.4 |
| 20260508004031 | 67 | 71 | 0.9 | 2.6 | 0.00 | 0.01 | 0.01 | 33 | 1011.1 |
| 20260508003031 | 68 | 72 | 0.0 | 1.7 | 0.00 | 0.02 | 0.01 | 31 | 1010.8 |
| 20260508002026 | 69 | 72 | 2.6 | 6.1 | 0.00 | 0.02 | 0.01 | 29 | 1010.8 |
| 20260508001025 | 69 | 332 | 1.7 | 6.1 | 0.00 | 0.02 | 0.01 | 29 | 1010.7 |
| 20260508000025 | 69 | 77 | 2.6 | 7.0 | 0.00 | 0.03 | 0.01 | 30 | 1010.9 |
| 20260507235024 | 70 | 72 | 3.5 | 9.6 | 0.00 | 0.03 | 0.01 | 27 | 1010.8 |
| 20260507234513 | 70 | 193 | 3.5 | 10.4 | 0.00 | 0.03 | 0.01 | 28 | 1010.7 |
| 20260507233024 | 71 | 109 | 3.5 | 7.8 | 0.00 | 0.04 | 0.01 | 28 | 1010.7 |
| 20260507232024 | 71 | 227 | 0.9 | 5.2 | 0.00 | 0.05 | 0.01 | 27 | 1010.7 |
| 20260507231024 | 70 | 202 | 3.5 | 7.8 | 0.00 | 0.05 | 0.01 | 27 | 1010.7 |
| 20260507230024 | 70 | 160 | 7.0 | 18.2 | 0.00 | 0.06 | 0.01 | 29 | 1010.8 |
| 20260507225505 | 70 | 60 | 6.1 | 13.0 | 0.00 | 0.07 | 0.01 | 28 | 1010.8 |
| 20260507224019 | 71 | 85 | 4.3 | 11.3 | 0.00 | 0.09 | 0.01 | 29 | 1011.0 |
| 20260507223507 | 70 | 43 | 5.2 | 11.3 | 0.00 | 0.10 | 0.01 | 27 | 1010.9 |
| 20260507222019 | 70 | 348 | 5.2 | 9.6 | 0.00 | 0.12 | 0.01 | 30 | 1011.1 |
| 20260507221018 | 70 | 189 | 1.7 | 6.1 | 0.00 | 0.14 | 0.01 | 30 | 1011.1 |
| 20260507220019 | 68 | 60 | 2.6 | 10.4 | 0.00 | 0.16 | 0.01 | 30 | 1011.3 |
| 20260507215017 | 68 | 117 | 4.3 | 10.4 | 0.00 | 0.19 | 0.01 | 33 | 1011.6 |
| 20260507214454 | 67 | 121 | 1.7 | 6.1 | 0.00 | 0.21 | 0.01 | 32 | 1011.8 |
| 20260507213018 | 66 | 127 | 3.5 | 7.0 | 0.00 | 0.22 | 0.01 | 32 | 1012.2 |
| 20260507212455 | 66 | 141 | 4.3 | 8.7 | 0.00 | 0.24 | 0.01 | 33 | 1012.3 |
| 20260507211447 | 66 | 65 | 5.2 | 8.7 | 0.00 | 0.26 | 0.01 | 32 | 1012.5 |
| 20260507210453 | 67 | 145 | 5.2 | 11.3 | 0.00 | 0.28 | 0.01 | 32 | 1012.8 |
| 20260507205011 | 65 | 119 | 5.2 | 10.4 | 0.00 | 0.30 | 0.01 | 33 | 1012.9 |
| 20260507204013 | 65 | 105 | 3.5 | 11.3 | 0.00 | 0.33 | 0.01 | 34 | 1013.0 |
| 20260507203448 | 65 | 110 | 3.5 | 7.8 | 0.00 | 0.36 | 0.01 | 33 | 1013.1 |
| 20260507202448 | 65 | 60 | 6.1 | 11.3 | 0.00 | 0.42 | 0.01 | 32 | 1013.1 |
| 20260507201004 | 66 | 110 | 5.2 | 12.2 | 0.00 | 0.47 | 0.01 | 33 | 1013.2 |
| 20260507200004 | 67 | 115 | 5.2 | 10.4 | 0.00 | 0.54 | 0.01 | 34 | 1013.2 |
| 20260507195451 | 66 | 125 | 8.7 | 16.5 | 0.00 | 0.57 | 0.01 | 33 | 1013.5 |
| 20260507194004 | 66 | 96 | 8.7 | 16.5 | 0.00 | 0.60 | 0.01 | 33 | 1013.6 |
| 20260507193005 | 66 | 103 | 9.6 | 18.2 | 0.00 | 0.63 | 0.01 | 33 | 1013.7 |
| 20260507192005 | 66 | 130 | 6.1 | 17.4 | 0.00 | 0.65 | 0.01 | 34 | 1013.8 |
| 20260507191003 | 65 | 85 | 2.6 | 9.6 | 0.00 | 0.66 | 0.01 | 34 | 1014.1 |
| 20260507190435 | 64 | 72 | 4.3 | 8.7 | 0.00 | 0.68 | 0.01 | 36 | 1014.3 |
| 20260507185449 | 64 | 70 | 3.5 | 9.6 | 0.00 | 0.68 | 0.01 | 34 | 1014.2 |
| 20260507184440 | 63 | 69 | 2.6 | 7.0 | 0.00 | 0.70 | 0.01 | 34 | 1014.3 |
| 20260507182957 | 62 | 80 | 1.7 | 6.1 | 0.00 | 0.71 | 0.01 | 39 | 1014.4 |
| 20260507181958 | 61 | 120 | 5.2 | 13.9 | 0.00 | 0.72 | 0.01 | 38 | 1014.5 |
| 20260507180957 | 60 | 107 | 11.3 | 17.4 | 0.00 | 0.73 | 0.01 | 37 | 1014.5 |
| 20260507175957 | 60 | 104 | 11.3 | 19.1 | 0.00 | 0.74 | 0.01 | 35 | 1014.4 |
| 20260507174957 | 60 | 98 | 9.6 | 18.2 | 0.00 | 0.74 | 0.01 | 39 | 1014.3 |
| 20260507173957 | 59 | 100 | 7.8 | 19.1 | 0.00 | 0.74 | 0.01 | 40 | 1014.4 |
| 20260507172956 | 59 | 77 | 6.1 | 10.4 | 0.00 | 0.75 | 0.01 | 43 | 1014.6 |
| 20260507171951 | 59 | 100 | 10.4 | 15.6 | 0.00 | 0.75 | 0.01 | 41 | 1014.6 |
| 20260507171426 | 58 | 83 | 10.4 | 18.2 | 0.00 | 0.75 | 0.01 | 43 | 1014.6 |
| 20260507165950 | 58 | 91 | 10.4 | 17.4 | 0.00 | 0.75 | 0.01 | 42 | 1014.9 |
| 20260507164951 | 57 | 88 | 10.4 | 19.1 | 0.00 | 0.76 | 0.01 | 42 | 1014.8 |
| 20260507163951 | 57 | 98 | 7.0 | 17.4 | 0.00 | 0.76 | 0.01 | 41 | 1014.6 |
| 20260507162951 | 56 | 83 | 4.3 | 10.4 | 0.00 | 0.76 | 0.01 | 41 | 1014.6 |
| 20260507161950 | 56 | 124 | 8.7 | 17.4 | 0.00 | 0.76 | 0.01 | 42 | 1014.8 |
| 20260507160950 | 56 | 95 | 8.7 | 14.8 | 0.00 | 0.76 | 0.01 | 42 | 1014.8 |
| 20260507155950 | 55 | 72 | 12.2 | 18.2 | 0.00 | 0.76 | 0.01 | 45 | 1014.9 |
| 20260507155423 | 56 | 60 | 8.7 | 17.4 | 0.00 | 0.77 | 0.01 | 44 | 1014.9 |
| 20260507153946 | 56 | 72 | 7.0 | 15.6 | 0.00 | 0.77 | 0.01 | 44 | 1015.0 |
| 20260507153428 | 57 | 72 | 6.1 | 11.3 | 0.00 | 0.77 | 0.01 | 45 | 1014.9 |
| 20260507151947 | 59 | 65 | 5.2 | 12.2 | 0.00 | 0.77 | 0.01 | 41 | 1015.0 |
| 20260507151903 | 60 | 76 | 3.5 | 10.4 | 0.00 | 0.77 | 0.01 | 39 | 1015.1 |
| 20260507145947 | 59 | 114 | 1.7 | 12.2 | 0.00 | 0.77 | 0.01 | 38 | 1015.0 |
| 20260507145428 | 58 | 117 | 3.5 | 8.7 | 0.00 | 0.77 | 0.01 | 43 | 1015.0 |
| 20260507143948 | 56 | 77 | 5.2 | 8.7 | 0.00 | 0.77 | 0.01 | 45 | 1014.8 |
| 20260507142945 | 56 | 73 | 3.5 | 7.8 | 0.00 | 0.77 | 0.01 | 44 | 1014.9 |
| 20260507141946 | 56 | 295 | 1.7 | 4.3 | 0.00 | 0.77 | 0.01 | 44 | 1014.8 |
| 20260507140945 | 54 | 96 | 3.5 | 7.0 | 0.00 | 0.77 | 0.01 | 46 | 1014.8 |
| 20260507135945 | 53 | 84 | 7.8 | 10.4 | 0.00 | 0.77 | 0.01 | 47 | 1014.8 |
| 20260507134946 | 53 | 70 | 8.7 | 13.9 | 0.00 | 0.77 | 0.01 | 46 | 1014.9 |
| 20260507133944 | 52 | 55 | 11.3 | 16.5 | 0.00 | 0.77 | 0.01 | 47 | 1014.8 |
| 20260507133425 | 52 | 65 | 5.2 | 12.2 | 0.00 | 0.77 | 0.01 | 48 | 1015.0 |
| 20260507131945 | 52 | 54 | 3.5 | 7.8 | 0.00 | 0.77 | 0.01 | 45 | 1015.0 |
| 20260507130948 | 51 | 34 | 5.2 | 9.6 | 0.00 | 0.77 | 0.01 | 46 | 1014.9 |
| 20260507130421 | 51 | 68 | 5.2 | 9.6 | 0.00 | 0.77 | 0.01 | 46 | 1014.6 |
| 20260507124939 | 52 | 348 | 2.6 | 7.8 | 0.00 | 0.77 | 0.01 | 45 | 1014.6 |
| 20260507123938 | 51 | 39 | 4.3 | 10.4 | 0.00 | 0.77 | 0.01 | 45 | 1014.5 |
| 20260507122939 | 51 | 343 | 7.0 | 11.3 | 0.00 | 0.77 | 0.01 | 44 | 1014.4 |
| 20260507121941 | 51 | 30 | 9.6 | 14.8 | 0.00 | 0.77 | 0.01 | 44 | 1014.3 |
| 20260507120940 | 50 | 64 | 7.8 | 13.0 | 0.00 | 0.77 | 0.01 | 45 | 1014.5 |
| 20260507115940 | 49 | 46 | 8.7 | 13.0 | 0.00 | 0.77 | 0.01 | 45 | 1014.4 |
| 20260507115418 | 48 | 49 | 10.4 | 13.9 | 0.00 | 0.77 | 0.01 | 49 | 1014.3 |
| 20260507113940 | 48 | 38 | 8.7 | 12.2 | 0.00 | 0.77 | 0.01 | 50 | 1014.4 |
| 20260507112934 | 48 | 351 | 7.8 | 13.0 | 0.00 | 0.77 | 0.01 | 50 | 1014.6 |
| 20260507111934 | 48 | 30 | 12.2 | 17.4 | 0.00 | 0.77 | 0.01 | 50 | 1014.3 |
| 20260507110933 | 48 | 55 | 12.2 | 18.2 | 0.00 | 0.77 | 0.01 | 49 | 1014.2 |
| 20260507105934 | 43 | 66 | 0.9 | 7.8 | 0.00 | 0.77 | 0.01 | 58 | 1014.5 |
| 20260507104933 | 44 | 284 | 0.9 | 1.7 | 0.00 | 0.77 | 0.01 | 59 | 1014.4 |
| 20260507103934 | 44 | 283 | 1.7 | 2.6 | 0.00 | 0.77 | 0.01 | 56 | 1014.4 |
| 20260507102934 | 46 | 264 | 0.9 | 2.6 | 0.00 | 0.77 | 0.01 | 53 | 1014.4 |
| 20260507101932 | 46 | 108 | 5.2 | 9.6 | 0.00 | 0.77 | 0.01 | 52 | 1014.3 |
| 20260507100932 | 46 | 73 | 4.3 | 8.7 | 0.00 | 0.77 | 0.01 | 53 | 1014.3 |
| 20260507095932 | 46 | 59 | 6.1 | 8.7 | 0.00 | 0.77 | 0.01 | 52 | 1014.5 |
| 20260507094933 | 47 | 75 | 5.2 | 9.6 | 0.00 | 0.77 | 0.01 | 50 | 1014.5 |
| 20260507093932 | 47 | 64 | 3.5 | 8.7 | 0.00 | 0.77 | 0.01 | 50 | 1014.8 |
| 20260507092934 | 47 | 82 | 7.8 | 12.2 | 0.00 | 0.77 | 0.01 | 48 | 1014.9 |
| 20260507092431 | 47 | 35 | 8.7 | 15.6 | 0.00 | 0.77 | 0.01 | 50 | 1014.9 |
| 20260507090933 | 45 | 35 | 7.8 | 14.8 | 0.00 | 0.77 | 0.01 | 54 | 1015.0 |
| 20260507085930 | 44 | 329 | 5.2 | 7.8 | 0.01 | 0.77 | 0.01 | 55 | 1015.0 |
| 20260507084931 | 44 | 346 | 3.5 | 8.7 | 0.01 | 0.77 | 0.01 | 55 | 1014.9 |
| 20260507083932 | 44 | 127 | 1.7 | 6.1 | 0.01 | 0.77 | 0.01 | 54 | 1014.6 |
| 20260507082930 | 46 | 101 | 4.3 | 9.6 | 0.01 | 0.77 | 0.01 | 50 | 1014.8 |
| 20260507081929 | 48 | 31 | 7.0 | 13.0 | 0.01 | 0.77 | 0.01 | 44 | 1014.8 |
| 20260507080929 | 48 | 349 | 2.6 | 8.7 | 0.01 | 0.77 | 0.01 | 42 | 1014.8 |
| 20260507075928 | 49 | 45 | 6.1 | 13.9 | 0.00 | 0.76 | 0.00 | 40 | 1014.9 |
| 20260507074928 | 49 | 85 | 7.0 | 13.9 | 0.00 | 0.76 | 0.00 | 41 | 1015.1 |
| 20260507073926 | 48 | 65 | 5.2 | 10.4 | 0.00 | 0.76 | 0.00 | 42 | 1015.2 |
| 20260507072926 | 46 | 101 | 6.1 | 13.0 | 0.00 | 0.76 | 0.00 | 46 | 1015.2 |
| 20260507071926 | 45 | 47 | 7.8 | 13.0 | 0.00 | 0.76 | 0.00 | 50 | 1015.3 |
| 20260507070926 | 44 | 46 | 6.1 | 13.9 | 0.00 | 0.76 | 0.00 | 53 | 1015.3 |
| 20260507065927 | 38 | 46 | 1.7 | 9.6 | 0.00 | 0.76 | 0.00 | 72 | 1015.5 |
| 20260507064926 | 34 | 311 | 0.0 | 4.3 | 0.00 | 0.76 | 0.00 | 85 | 1015.5 |
| 20260507064411 | 33 | 116 | 1.7 | 5.2 | 0.00 | 0.76 | 0.00 | 90 | 1015.8 |
| 20260507062923 | 32 | 326 | 2.6 | 5.2 | 0.00 | 0.76 | 0.00 | 91 | 1015.7 |
| 20260507061924 | 32 | 52 | 2.6 | 5.2 | 0.00 | 0.76 | 0.00 | 91 | 1016.0 |
| 20260507060917 | 32 | 91 | 2.6 | 5.2 | 0.00 | 0.76 | 0.00 | 91 | 1016.3 |
| 20260507055917 | 31 | 181 | 2.6 | 5.2 | 0.00 | 0.76 | 0.76 | 91 | 1016.3 |
| 20260507055357 | 31 | 108 | 0.9 | 5.2 | 0.00 | 0.76 | 0.76 | 91 | 1016.3 |
| 20260507053917 | 31 | 303 | 1.7 | 7.0 | 0.00 | 0.76 | 0.76 | 91 | 1016.3 |
| 20260507052916 | 31 | 145 | 0.0 | 0.9 | 0.00 | 0.76 | 0.76 | 91 | 1016.5 |
| 20260507051917 | 31 | 326 | 0.9 | 4.3 | 0.00 | 0.76 | 0.76 | 91 | 1016.5 |
| 20260507050918 | 31 | 40 | 0.9 | 3.5 | 0.00 | 0.76 | 0.76 | 91 | 1016.6 |
| 20260507045917 | 32 | 356 | 1.7 | 4.3 | 0.00 | 0.76 | 0.76 | 91 | 1016.6 |
| 20260507044916 | 31 | 335 | 0.9 | 3.5 | 0.00 | 0.76 | 0.76 | 90 | 1016.7 |
| 20260507043911 | 31 | 103 | 0.0 | 0.9 | 0.00 | 0.76 | 0.76 | 90 | 1016.9 |
| 20260507042910 | 31 | 103 | 0.0 | 1.7 | 0.00 | 0.76 | 0.76 | 90 | 1017.1 |
| 20260507041910 | 32 | 100 | 0.0 | 2.6 | 0.00 | 0.76 | 0.76 | 90 | 1017.0 |
| 20260507040910 | 32 | 86 | 0.9 | 3.5 | 0.00 | 0.76 | 0.76 | 90 | 1017.1 |
| 20260507035911 | 32 | 163 | 0.0 | 0.9 | 0.00 | 0.76 | 0.76 | 90 | 1017.3 |
| 20260507034910 | 33 | 163 | 0.0 | 0.9 | 0.00 | 0.76 | 0.76 | 90 | 1017.2 |
| 20260507033912 | 33 | 163 | 0.0 | 0.0 | 0.00 | 0.76 | 0.76 | 90 | 1017.3 |
| 20260507032911 | 33 | 163 | 0.0 | 1.7 | 0.00 | 0.76 | 0.76 | 89 | 1017.4 |
| 20260507031911 | 33 | 161 | 0.9 | 2.6 | 0.00 | 0.76 | 0.76 | 89 | 1017.3 |
| 20260507030905 | 34 | 76 | 0.0 | 0.9 | 0.00 | 0.76 | 0.76 | 88 | 1017.3 |
| 20260507025906 | 34 | 76 | 0.0 | 0.9 | 0.00 | 0.76 | 0.76 | 87 | 1017.2 |
| 20260507024903 | 34 | 76 | 0.0 | 0.9 | 0.00 | 0.76 | 0.76 | 87 | 1017.1 |
| 20260507023905 | 35 | 76 | 0.0 | 0.9 | 0.00 | 0.76 | 0.76 | 85 | 1017.1 |
| 20260507022904 | 36 | 76 | 0.0 | 0.9 | 0.00 | 0.76 | 0.76 | 83 | 1017.1 |
| 20260507022341 | 37 | 76 | 0.0 | 0.9 | 0.00 | 0.76 | 0.76 | 81 | 1017.0 |
| 20260507020901 | 38 | 76 | 0.0 | 1.7 | 0.00 | 0.76 | 0.76 | 78 | 1016.7 |
| 20260507015900 | 38 | 76 | 1.7 | 3.5 | 0.00 | 0.76 | 0.76 | 77 | 1016.7 |
| 20260507014858 | 39 | 345 | 1.7 | 4.3 | 0.00 | 0.76 | 0.76 | 76 | 1016.6 |
| 20260507014330 | 39 | 22 | 3.5 | 6.1 | 0.00 | 0.76 | 0.76 | 75 | 1016.5 |
| 20260507012855 | 40 | 342 | 4.3 | 8.7 | 0.01 | 0.76 | 0.76 | 73 | 1016.6 |
| 20260507011853 | 40 | 358 | 5.2 | 8.7 | 0.01 | 0.76 | 0.76 | 72 | 1016.6 |